Location: Sternwarte_Laufen
(47.9344°N, 12.9346°E)
Time: 21:39:04
(UTC+01:00)

Amateur Radio Satellites - All Passes

Search period start: 23 November 2017 21:09
Search period end: 24 November 2017 21:09
Location: Sternwarte_Laufen, 47.9344°N, 12.9346°E

Satellite Date Start Highest point End Downlink Frequencies (MHz)
Time Altitude Azimuth
SO-50 23 Nov 21:14:59 21:19:16 47° 121° (ESE) 21:23:37 436.795
DELFI C3 23 Nov 21:23:09 21:26:52 38° 263° (W) 21:30:38 145.870
O/OREOS (USA 219) 23 Nov 21:23:43 21:27:30 25° 51° (NE) 21:31:14 437.305
UNISAT 6 23 Nov 21:33:26 21:37:24 36° 97° (E) 21:41:18 437.425
TIGRISAT 23 Nov 21:37:03 21:41:00 35° 97° (E) 21:44:54 435.000
STRAND 1 23 Nov 21:37:13 21:40:10 16° 305° (NW) 21:43:05 437.568
nSIGHT-1 23 Nov 21:44:05 21:47:17 63° 342° (NNW) 21:50:29 .
PRISM 23 Nov 21:45:20 21:48:05 17° 91° (E) 21:50:50 437.425
EO-88 23 Nov 21:48:31 21:51:51 35° 263° (W) 21:55:14 145.990 - 145.960
NO-84 23 Nov 21:54:59 21:58:34 27° 227° (SW) 22:02:09 435.350 FM
Max Valier Satellite 23 Nov 21:57:01 21:59:52 21° 266° (W) 22:02:43 145.860
LO-87 23 Nov 22:04:08 22:07:34 44° 72° (ENE) 22:11:02 145.935 - 145.965
ESTCUBE 1 23 Nov 22:17:28 22:21:48 51° 71° (ENE) 22:26:11 437.505/2401.250
AIST 2D 23 Nov 22:24:55 22:26:46 14° 90° (E) 22:28:36 435.315
VELOX 1 23 Nov 22:28:31 22:30:52 14° 58° (ENE) 22:33:13 145.980
ISS 23 Nov 22:36:52 22:40:03 46° 351° (N) 22:43:14 437.550
FO-29 23 Nov 22:45:24 22:51:39 27° 306° (NW) 22:57:43 435.910
SO-50 23 Nov 22:55:54 22:59:54 31° 322° (NW) 23:03:57 436.795
O/OREOS (USA 219) 23 Nov 23:02:46 23:07:09 47° 251° (WSW) 23:11:28 437.305
SPROUT 23 Nov 23:03:09 23:07:08 39° 69° (ENE) 23:11:07 437.525
QB50P2 23 Nov 23:04:49 23:07:30 16° 91° (E) 23:10:10 145.880/145.840
RS-15 23 Nov 23:05:27 23:16:24 35° 359° (N) 23:26:59 29.354- 29.394
UNISAT 6 23 Nov 23:10:27 23:13:58 25° 295° (WNW) 23:17:27 437.425
TIGRISAT 23 Nov 23:14:02 23:17:33 25° 295° (WNW) 23:21:02 435.000
PRISM 23 Nov 23:19:36 23:23:40 51° 289° (WNW) 23:27:41 437.425
nSIGHT-1 23 Nov 23:20:45 23:23:49 40° 2° (N) 23:26:53 .
LO-87 23 Nov 23:39:08 23:41:13 15° 269° (W) 23:43:18 145.935 - 145.965
PCSat 23 Nov 23:42:11 23:47:25 51° 116° (ESE) 23:52:39 145.827
UKube-1 23 Nov 23:42:21 23:44:10 12° 56° (ENE) 23:45:59 .
DUCHIFAT 1 23 Nov 23:49:12 23:52:58 32° 96° (E) 23:56:42 145.980
ESTCUBE 1 23 Nov 23:55:42 23:58:54 19° 269° (W) 00:02:09 437.505/2401.250
AIST 2D 23 Nov 23:56:47 00:00:11 46° 288° (WNW) 00:03:35 435.315
EO-79 23 Nov 23:59:47 00:03:54 53° 100° (E) 00:07:59 145.935-145.965
NANOSAT C BR1 24 Nov 00:01:11 00:05:15 48° 100° (E) 00:09:18 145.865
VELOX 1 24 Nov 00:02:14 00:06:42 82° 258° (WSW) 00:11:11 145.980
ISS 24 Nov 00:13:41 00:16:53 48° 11° (N) 00:20:05 437.550
POLYITAN 1 24 Nov 00:15:50 00:20:03 78° 102° (ESE) 00:24:14 437.675
BUGSAT 1 24 Nov 00:31:14 00:34:27 22° 94° (E) 00:37:38 437.445
50 SAT 24 Nov 00:36:37 00:39:48 58° 74° (ENE) 00:43:00 437.505
DX 1 24 Nov 00:39:02 00:43:21 61° 72° (ENE) 00:47:42 434.975-435.025
QB50P2 24 Nov 00:39:30 00:43:37 54° 288° (WNW) 00:47:42 145.880/145.840
SPROUT 24 Nov 00:39:41 00:43:08 23° 267° (W) 00:46:36 437.525
SO-50 24 Nov 00:40:09 00:41:48 12° 345° (NNW) 00:43:28 436.795
nSIGHT-1 24 Nov 00:57:05 01:00:18 81° 21° (NNE) 01:03:30 .
Oscar 19 24 Nov 01:10:44 01:15:27 34° 96° (E) 01:20:08 437.125/150
UKube-1 24 Nov 01:15:10 01:19:30 90° 252° (WSW) 01:23:52 .
RS-15 24 Nov 01:20:45 01:32:27 50° 32° (NNE) 01:43:31 29.354- 29.394
DUCHIFAT 1 24 Nov 01:25:00 01:28:33 27° 294° (WNW) 01:32:04 145.980
PCSat 24 Nov 01:26:06 01:31:01 34° 317° (NW) 01:35:58 145.827
MOZHAYETS 4 24 Nov 01:35:48 01:39:46 30° 66° (ENE) 01:43:46
AO-91 24 Nov 01:36:03 01:40:36 55° 99° (E) 01:44:38 145.960
EO-79 24 Nov 01:36:26 01:39:17 18° 298° (WNW) 01:42:08 145.935-145.965
NANOSAT C BR1 24 Nov 01:37:39 01:40:38 19° 298° (WNW) 01:43:36 145.865
BEESAT 24 Nov 01:38:20 01:42:22 28° 63° (ENE) 01:46:24 436.000
ITUPSAT 1 24 Nov 01:49:39 01:53:56 34° 66° (ENE) 01:58:14 437.325
ISS 24 Nov 01:50:13 01:53:25 53° 210° (SSW) 01:56:37 437.550
POLYITAN 1 24 Nov 01:53:15 01:55:15 13° 302° (WNW) 01:57:13 437.675
CUBESAT XI-V 24 Nov 01:56:41 01:59:05 14° 57° (ENE) 02:01:29 437.345
BEESAT 3 24 Nov 01:57:37 02:01:20 38° 120° (ESE) 02:05:04 437.485
Gurwin Techsat 1B 24 Nov 01:58:02 02:03:21 64° 102° (ESE) 02:08:37 435.225
BUGSAT 1 24 Nov 02:06:13 02:09:54 35° 292° (WNW) 02:13:34 437.445
DX 1 24 Nov 02:17:16 02:19:56 16° 270° (W) 02:22:37 434.975-435.025
SO-50 24 Nov 02:23:17 02:24:22 11° 11° (N) 02:25:25 436.795
nSIGHT-1 24 Nov 02:33:45 02:36:14 21° 220° (SW) 02:38:42 .
AO-85 24 Nov 02:35:11 02:35:51 10° 108° (ESE) 02:36:31 145.980
Oscar 19 24 Nov 02:50:04 02:54:46 37° 295° (WNW) 02:59:29 437.125/150
UKube-1 24 Nov 02:55:34 02:56:10 10° 273° (W) 02:56:46 .
M-CUBED/EXP-1 PRIME 24 Nov 02:57:17 03:01:43 48° 105° (ESE) 03:06:13 437.505
KKS-1 24 Nov 03:08:07 03:11:05 18° 60° (ENE) 03:14:03 437.445
ITAMSAT 1 24 Nov 03:09:35 03:13:59 27° 94° (E) 03:18:20 435.822/435.867
MOZHAYETS 4 24 Nov 03:12:44 03:16:52 33° 264° (W) 03:21:01
AO-7 24 Nov 03:12:59 03:20:54 44° 99° (E) 03:28:46 .
AO-91 24 Nov 03:13:21 03:16:33 19° 301° (WNW) 03:19:33 145.960
PCSat 24 Nov 03:13:49 03:16:08 13° 341° (NNW) 03:18:28 145.827
BEESAT 24 Nov 03:15:29 03:19:59 40° 262° (W) 03:24:30 436.000
BEESAT 2 24 Nov 03:15:39 03:19:39 70° 126° (SE) 03:23:42 435.950
STARS 24 Nov 03:25:45 03:27:14 12° 55° (NE) 03:28:44 437.465
ITUPSAT 1 24 Nov 03:27:27 03:31:45 33° 264° (W) 03:36:04 437.325
CUBESAT XI-V 24 Nov 03:31:11 03:35:48 85° 260° (W) 03:40:27 437.345
RS-15 24 Nov 03:33:54 03:45:43 72° 240° (WSW) 03:56:53 29.354- 29.394
BEESAT 3 24 Nov 03:35:23 03:38:56 30° 319° (NW) 03:42:31 437.485
Gurwin Techsat 1B 24 Nov 03:38:48 03:42:51 22° 301° (WNW) 03:46:53 435.225
SO-50 24 Nov 04:02:39 04:06:26 24° 34° (NE) 04:10:16 436.795
YUBILEINY 24 Nov 04:09:34 04:16:46 30° 81° (E) 04:24:02 435.215
AO-85 24 Nov 04:11:32 04:15:28 89° 309° (NW) 04:19:37 145.980
DOVE 4 24 Nov 04:15:23 04:19:27 23° 90° (E) 04:23:21 437.250
M-CUBED/EXP-1 PRIME 24 Nov 04:32:08 04:35:50 25° 302° (WNW) 04:39:36 437.505
KKS-1 24 Nov 04:42:43 04:47:10 64° 258° (WSW) 04:51:39 437.445
ITAMSAT 1 24 Nov 04:48:40 04:53:40 47° 292° (WNW) 04:58:36 435.822/435.867
BEESAT 2 24 Nov 04:54:41 04:57:48 21° 325° (NW) 05:00:56 435.950
STARS 24 Nov 04:58:24 05:02:49 80° 74° (ENE) 05:07:17 437.465
PCSat 24 Nov 05:01:24 05:02:10 10° 9° (N) 05:02:57 145.827
CUTE-I 24 Nov 05:04:10 05:06:20 12° 86° (E) 05:08:29 437.470
AO-7 24 Nov 05:05:49 05:13:48 52° 300° (WNW) 05:21:48 .
XW-2D 24 Nov 05:08:09 05:09:48 12° 89° (E) 05:11:28 145.860 - 145.880
CUBESAT XI-V 24 Nov 05:12:59 05:13:54 10° 275° (W) 05:14:48 437.345
XW-2B 24 Nov 05:22:21 05:24:54 17° 91° (E) 05:27:27 145.730 - 145.750
NUDT-PHONESAT 24 Nov 05:24:53 05:26:31 12° 89° (E) 05:28:09 437.300
FO-29 24 Nov 05:33:33 05:37:32 16° 45° (NE) 05:41:41 435.910
STRAND 1 24 Nov 05:37:44 05:42:06 29° 63° (ENE) 05:46:28 437.568
SO-50 24 Nov 05:42:44 05:47:21 73° 235° (SW) 05:52:02 436.795
XW-2C 24 Nov 05:47:28 05:50:55 32° 96° (E) 05:54:22 145.795 - 145.815
RS-15 24 Nov 05:48:32 05:55:47 19° 264° (W) 06:02:50 29.354- 29.394
DOVE 4 24 Nov 05:52:24 05:57:27 53° 289° (WNW) 06:02:15 437.250
LilacSat-2 24 Nov 05:53:08 05:56:46 40° 98° (E) 06:00:25 437.200
HO-68 24 Nov 05:53:28 05:58:16 19° 87° (E) 06:03:02 435.675
AO-85 24 Nov 05:53:42 05:56:30 18° 330° (NNW) 05:59:26 145.980
XW-2F 24 Nov 05:55:15 05:58:48 36° 97° (E) 06:02:19 145.980 - 146.000
YUBILEINY 24 Nov 06:04:07 06:12:51 70° 283° (WNW) 06:21:42 435.215
KAITUO 1B 24 Nov 06:17:44 06:21:26 51° 100° (E) 06:25:08 145.475/437.950
STARS 24 Nov 06:37:54 06:39:43 12° 272° (W) 06:41:33 437.465
XW-2D 24 Nov 06:40:35 06:44:21 60° 287° (WNW) 06:48:08 145.860 - 145.880
CUTE-I 24 Nov 06:41:49 06:47:14 82° 104° (ESE) 06:52:35 437.470
PCSat 24 Nov 06:43:34 06:47:45 22° 34° (NE) 06:51:56 145.827
CUBEBUG 2 24 Nov 06:50:11 06:53:33 23° 93° (E) 06:56:54 437.445
XW-2B 24 Nov 06:55:39 06:59:17 42° 289° (WNW) 07:02:54 145.730 - 145.750
NUDT-PHONESAT 24 Nov 06:57:03 07:00:43 57° 287° (WNW) 07:04:21 437.300
CUTE 1.7 + AOD 2 24 Nov 06:57:53 07:02:03 48° 99° (E) 07:06:11 437.475
AO-7 24 Nov 07:00:07 07:04:45 16° 323° (NW) 07:09:23 .
FO-29 24 Nov 07:14:09 07:20:54 57° 67° (ENE) 07:28:22 435.910
STRAND 1 24 Nov 07:16:09 07:21:05 45° 261° (W) 07:26:02 437.568
AAUSAT CUBESAT 2 24 Nov 07:20:06 07:23:31 24° 93° (E) 07:26:55 437.432
XW-2C 24 Nov 07:21:54 07:24:57 23° 294° (WNW) 07:28:00 145.795 - 145.815
SEEDS 24 Nov 07:22:18 07:26:29 54° 100° (E) 07:30:39 437.485
ZACube-1 24 Nov 07:24:13 07:26:58 17° 91° (E) 07:29:44 437.345
SO-50 24 Nov 07:26:06 07:27:00 11° 253° (WSW) 07:27:55 436.795
LilacSat-2 24 Nov 07:28:00 07:30:47 19° 296° (WNW) 07:33:36 437.200
XW-2F 24 Nov 07:29:49 07:32:42 21° 295° (WNW) 07:35:33 145.980 - 146.000
XW-2A 24 Nov 07:31:26 07:34:27 30° 97° (E) 07:37:27 145.665 - 145.685
HO-68 24 Nov 07:39:45 07:47:01 88° 110° (ESE) 07:54:12 435.675
UWE-3 24 Nov 07:40:05 07:44:04 44° 98° (E) 07:48:03 435.000/436.395/437.385
KAITUO 1B 24 Nov 07:52:46 07:55:01 15° 298° (WNW) 07:57:18 145.475/437.950
YUBILEINY 24 Nov 08:05:53 08:11:35 18° 308° (NW) 08:17:20 435.215
AO-73 24 Nov 08:12:23 08:16:24 46° 99° (E) 08:20:26 145.935
CUTE-I 24 Nov 08:23:03 08:26:38 18° 304° (WNW) 08:30:12 437.470
Oscar 11 24 Nov 08:25:14 08:29:23 44° 98° (E) 08:33:32 .
CUBEBUG 2 24 Nov 08:26:28 08:30:17 35° 291° (WNW) 08:34:04 437.445
PCSat 24 Nov 08:26:29 08:31:57 86° 56° (NE) 08:37:22 145.827
BEESAT 3 24 Nov 08:34:06 08:36:29 15° 29° (NNE) 08:38:52 437.485
CUTE 1.7 + AOD 2 24 Nov 08:34:25 08:37:34 20° 297° (WNW) 08:40:42 437.475
UNISAT 6 24 Nov 08:35:02 08:39:24 49° 71° (ENE) 08:43:41 437.425
PRISM 24 Nov 08:37:38 08:40:41 20° 62° (ENE) 08:43:46 437.425
TIGRISAT 24 Nov 08:38:30 08:42:52 49° 70° (ENE) 08:47:09 435.000
AAUSAT CUBESAT 2 24 Nov 08:55:11 08:59:03 36° 291° (WNW) 09:02:54 437.432
DELFI C3 24 Nov 08:56:37 08:59:40 21° 93° (E) 09:02:40 145.870
SEEDS 24 Nov 08:58:53 09:01:47 18° 298° (WNW) 09:04:42 437.485
ZACube-1 24 Nov 08:59:32 09:03:33 50° 289° (WNW) 09:07:35 437.345
FO-29 24 Nov 09:00:06 09:06:17 35° 269° (W) 09:13:06 435.910
XW-2A 24 Nov 09:04:31 09:06:59 19° 294° (WNW) 09:09:27 145.665 - 145.685
EO-88 24 Nov 09:14:08 09:16:18 15° 91° (E) 09:18:27 145.990 - 145.960
UWE-3 24 Nov 09:17:13 09:20:16 20° 297° (WNW) 09:23:19 435.000/436.395/437.385
AO-85 24 Nov 09:19:20 09:21:11 12° 20° (NNE) 09:23:04 145.980
Max Valier Satellite 24 Nov 09:22:30 09:25:37 26° 95° (E) 09:28:43 145.860
HO-68 24 Nov 09:28:28 09:33:55 24° 308° (NW) 09:39:21 435.675
POLYITAN 1 24 Nov 09:38:46 09:40:18 12° 57° (ENE) 09:41:50 437.675
AO-73 24 Nov 09:49:21 09:52:21 20° 297° (WNW) 09:55:21 145.935
BEESAT 2 24 Nov 09:52:48 09:56:02 22° 36° (NE) 09:59:13 435.950
QB50P2 24 Nov 10:00:29 10:03:37 20° 63° (ENE) 10:06:45 145.880/145.840
Oscar 11 24 Nov 10:01:55 10:05:16 22° 296° (WNW) 10:08:37 .
BEESAT 3 24 Nov 10:10:46 10:14:44 72° 51° (NE) 10:18:37 437.485
PCSat 24 Nov 10:11:18 10:14:37 17° 255° (WSW) 10:17:55 145.827
PRISM 24 Nov 10:11:41 10:15:40 45° 261° (W) 10:19:41 437.425
UNISAT 6 24 Nov 10:13:02 10:16:21 20° 268° (W) 10:19:39 437.425
TIGRISAT 24 Nov 10:16:28 10:19:48 20° 268° (W) 10:23:05 435.000
DELFI C3 24 Nov 10:30:48 10:34:32 38° 290° (WNW) 10:38:15 145.870
AIST 2D 24 Nov 10:33:35 10:37:03 80° 258° (WSW) 10:40:33 435.315
DUCHIFAT 1 24 Nov 10:43:52 10:47:45 37° 69° (ENE) 10:51:37 145.980
EO-88 24 Nov 10:46:40 10:50:11 45° 288° (WNW) 10:53:41 145.990 - 145.960
FALCONSAT 3 24 Nov 10:51:08 10:52:32 12° 183° (S) 10:53:57 435.103
EO-79 24 Nov 10:54:59 10:59:09 61° 73° (ENE) 11:03:21 145.935-145.965
Oscar 19 24 Nov 10:55:26 10:57:32 13° 53° (NE) 10:59:38 437.125/150
NANOSAT C BR1 24 Nov 10:56:03 11:00:10 56° 72° (ENE) 11:04:18 145.865
Max Valier Satellite 24 Nov 10:56:17 10:59:24 26° 292° (WNW) 11:02:29 145.860
AO-85 24 Nov 10:58:34 11:02:49 36° 42° (NE) 11:07:21 145.980
LO-87 24 Nov 11:00:38 11:03:53 33° 97° (E) 11:07:05 145.935 - 145.965
AO-91 24 Nov 11:01:45 11:04:22 14° 56° (NE) 11:06:56 145.960
POLYITAN 1 24 Nov 11:11:11 11:15:25 89° 76° (ENE) 11:19:40 437.675
BUGSAT 1 24 Nov 11:23:51 11:27:21 27° 66° (ENE) 11:30:51 437.445
BEESAT 2 24 Nov 11:30:06 11:34:06 63° 237° (WSW) 11:38:03 435.950
QB50P2 24 Nov 11:35:01 11:39:06 46° 261° (W) 11:43:12 145.880/145.840
O/OREOS (USA 219) 24 Nov 11:41:44 11:43:48 13° 98° (E) 11:45:52 437.305
ESTCUBE 1 24 Nov 11:42:43 11:47:16 70° 103° (ESE) 11:51:47 437.505/2401.250
Gurwin Techsat 1B 24 Nov 11:44:20 11:48:29 24° 60° (ENE) 11:52:39 435.225
BEESAT 3 24 Nov 11:49:42 11:51:44 14° 249° (WSW) 11:53:43 437.485
VELOX 1 24 Nov 11:49:54 11:52:29 15° 89° (E) 11:55:02 145.980
M-CUBED/EXP-1 PRIME 24 Nov 12:14:24 12:16:08 13° 51° (NE) 12:17:56 437.505
DUCHIFAT 1 24 Nov 12:20:06 12:23:30 23° 266° (W) 12:26:55 145.980
SPROUT 24 Nov 12:20:35 12:24:41 44° 99° (E) 12:28:44 437.525
AO-7 24 Nov 12:26:06 12:32:12 24° 45° (NE) 12:38:19 .
Oscar 19 24 Nov 12:30:52 12:35:57 71° 71° (ENE) 12:41:04 437.125/150
EO-79 24 Nov 12:32:55 12:35:19 15° 270° (W) 12:37:43 145.935-145.965
NANOSAT C BR1 24 Nov 12:33:36 12:36:13 16° 270° (W) 12:38:51 145.865
LO-87 24 Nov 12:34:29 12:37:05 19° 295° (WNW) 12:39:39 145.935 - 145.965
AO-91 24 Nov 12:34:33 12:39:56 72° 74° (ENE) 12:45:15 145.960
AO-85 24 Nov 12:38:55 12:43:19 41° 240° (WSW) 12:48:00 145.980
ITAMSAT 1 24 Nov 12:56:02 12:57:21 11° 50° (NE) 12:58:39 435.822/435.867
BUGSAT 1 24 Nov 12:58:49 13:02:36 33° 263° (W) 13:06:23 437.445
UKube-1 24 Nov 13:00:41 13:02:10 11° 88° (E) 13:03:39 .
NO-84 24 Nov 13:13:55 13:15:16 12° 124° (SE) 13:16:39 435.350 FM
O/OREOS (USA 219) 24 Nov 13:17:55 13:22:31 82° 294° (WNW) 13:27:10 437.305
ESTCUBE 1 24 Nov 13:20:43 13:23:32 16° 301° (WNW) 13:26:21 437.505/2401.250
50 SAT 24 Nov 13:22:24 13:25:15 28° 97° (E) 13:28:05 437.505
Gurwin Techsat 1B 24 Nov 13:22:47 13:28:02 60° 259° (W) 13:33:20 435.225
VELOX 1 24 Nov 13:24:56 13:29:22 66° 288° (WNW) 13:33:46 145.980
M-CUBED/EXP-1 PRIME 24 Nov 13:46:09 13:49:50 83° 250° (WSW) 13:53:54 437.505
SPROUT 24 Nov 13:57:05 14:00:17 21° 297° (WNW) 14:03:29 437.525
DX 1 24 Nov 13:59:34 14:03:58 70° 102° (ESE) 14:08:19 434.975-435.025
Oscar 19 24 Nov 14:12:28 14:15:48 17° 271° (W) 14:19:09 437.125/150
AO-91 24 Nov 14:13:00 14:16:48 19° 271° (W) 14:20:35 145.960
YUBILEINY 24 Nov 14:14:09 14:20:07 19° 53° (NE) 14:26:03 435.215
AO-7 24 Nov 14:15:31 14:23:47 78° 67° (ENE) 14:32:07 .
ITAMSAT 1 24 Nov 14:30:38 14:35:45 59° 70° (ENE) 14:40:54 435.822/435.867
UKube-1 24 Nov 14:34:25 14:38:46 82° 286° (WNW) 14:43:05 .
NO-84 24 Nov 14:48:10 14:51:50 70° 144° (SE) 14:55:49 435.350 FM
50 SAT 24 Nov 14:54:51 14:57:09 18° 294° (WNW) 14:59:27 437.505
O/OREOS (USA 219) 24 Nov 15:00:08 15:02:43 15° 317° (NW) 15:05:18 437.305
MOZHAYETS 4 24 Nov 15:03:30 15:07:52 42° 98° (E) 15:12:12
BEESAT 24 Nov 15:11:39 15:16:06 38° 98° (E) 15:20:31 436.000
DOVE 4 24 Nov 15:23:12 15:27:48 34° 65° (ENE) 15:32:33 437.250
ITUPSAT 1 24 Nov 15:23:38 15:28:15 47° 100° (E) 15:32:50 437.325
CUBESAT XI-V 24 Nov 15:24:50 15:28:11 19° 91° (E) 15:31:31 437.345
DX 1 24 Nov 15:37:00 15:39:37 16° 301° (WNW) 15:42:14 434.975-435.025
XW-2D 24 Nov 15:53:41 15:54:41 11° 59° (ENE) 15:55:42 145.860 - 145.880
RS-15 24 Nov 15:56:43 16:01:46 14° 91° (E) 16:06:47 29.354- 29.394
XW-2B 24 Nov 16:07:25 16:09:31 15° 62° (ENE) 16:11:38 145.730 - 145.750
NUDT-PHONESAT 24 Nov 16:08:32 16:09:08 10° 59° (ENE) 16:09:42 437.300
YUBILEINY 24 Nov 16:09:53 16:18:46 73° 78° (ENE) 16:27:35 435.215
AO-7 24 Nov 16:10:39 16:17:21 27° 268° (W) 16:24:09 .
ITAMSAT 1 24 Nov 16:11:36 16:15:35 22° 268° (W) 16:19:36 435.822/435.867
UKube-1 24 Nov 16:12:40 16:14:03 11° 304° (NW) 16:15:25 .
NO-84 24 Nov 16:25:49 16:29:26 37° 345° (NNW) 16:33:17 435.350 FM
HO-68 24 Nov 16:26:22 16:31:45 23° 51° (NE) 16:37:07 435.675
CUTE-I 24 Nov 16:28:11 16:32:48 30° 62° (ENE) 16:37:26 437.470
KKS-1 24 Nov 16:30:50 16:34:01 19° 92° (E) 16:37:10 437.445
XW-2C 24 Nov 16:32:01 16:35:09 26° 67° (ENE) 16:38:18 145.795 - 145.815
LilacSat-2 24 Nov 16:38:12 16:41:33 32° 69° (ENE) 16:44:57 437.200
XW-2F 24 Nov 16:39:15 16:42:28 28° 68° (ENE) 16:45:43 145.980 - 146.000
MOZHAYETS 4 24 Nov 16:41:05 16:44:49 25° 296° (WNW) 16:48:31
STARS 24 Nov 16:46:35 16:47:46 11° 87° (E) 16:48:57 437.465
BEESAT 24 Nov 16:49:39 16:53:45 30° 296° (WNW) 16:57:51 436.000
DOVE 4 24 Nov 17:00:35 17:05:22 39° 264° (W) 17:10:20 437.250
KAITUO 1B 24 Nov 17:00:39 17:04:04 38° 71° (ENE) 17:07:33 145.475/437.950
CUBESAT XI-V 24 Nov 17:01:17 17:05:53 56° 289° (WNW) 17:10:29 437.345
ITUPSAT 1 24 Nov 17:01:59 17:05:48 24° 298° (WNW) 17:09:36 437.325
XW-2D 24 Nov 17:24:33 17:28:16 78° 256° (WSW) 17:32:03 145.860 - 145.880
NUDT-PHONESAT 24 Nov 17:38:44 17:42:23 79° 257° (WSW) 17:46:04 437.300
XW-2B 24 Nov 17:39:37 17:43:17 54° 260° (W) 17:46:59 145.730 - 145.750
CUBEBUG 2 24 Nov 17:51:03 17:55:02 32° 68° (ENE) 17:58:56 437.445
CUTE 1.7 + AOD 2 24 Nov 17:53:30 17:57:34 51° 71° (ENE) 18:01:40 437.475
RS-15 24 Nov 17:59:29 18:11:19 57° 115° (ESE) 18:23:03 29.354- 29.394
NO-84 24 Nov 18:03:55 18:07:32 31° 6° (N) 18:11:19 435.350 FM
XW-2C 24 Nov 18:06:03 18:09:16 27° 265° (W) 18:12:30 145.795 - 145.815
XW-2A 24 Nov 18:06:08 18:08:29 18° 66° (ENE) 18:10:51 145.665 - 145.685
KKS-1 24 Nov 18:06:31 18:10:52 52° 290° (WNW) 18:15:11 437.445
CUTE-I 24 Nov 18:07:31 18:12:40 46° 261° (W) 18:17:51 437.470
YUBILEINY 24 Nov 18:07:36 18:14:47 29° 280° (W) 18:21:56 435.215
HO-68 24 Nov 18:11:24 18:18:37 90° 75° (ENE) 18:25:53 435.675
LilacSat-2 24 Nov 18:12:56 18:15:53 22° 266° (W) 18:18:53 437.200
AAUSAT CUBESAT 2 24 Nov 18:13:21 18:16:43 25° 65° (ENE) 18:20:07 437.432
XW-2F 24 Nov 18:13:30 18:16:34 24° 266° (W) 18:19:40 145.980 - 146.000
SEEDS 24 Nov 18:16:50 18:20:55 56° 72° (ENE) 18:25:03 437.485
STARS 24 Nov 18:20:18 18:24:44 87° 284° (WNW) 18:29:06 437.465
ZACube-1 24 Nov 18:23:09 18:26:24 22° 64° (ENE) 18:29:37 437.345
KAITUO 1B 24 Nov 18:35:40 18:38:13 18° 268° (W) 18:40:47 145.475/437.950
UWE-3 24 Nov 18:39:53 18:44:10 55° 72° (ENE) 18:48:22 435.000/436.395/437.385
AO-73 24 Nov 19:10:48 19:14:57 55° 72° (ENE) 19:19:02 145.935
nSIGHT-1 24 Nov 19:13:16 19:15:27 17° 138° (SE) 19:17:39 .
STRAND 1 24 Nov 19:22:46 19:27:44 47° 99° (E) 19:32:38 437.568
Oscar 11 24 Nov 19:23:00 19:27:09 51° 71° (ENE) 19:31:20 .
CUBEBUG 2 24 Nov 19:27:38 19:31:38 30° 264° (W) 19:35:33 437.445
CUTE 1.7 + AOD 2 24 Nov 19:30:54 19:33:42 17° 270° (W) 19:36:32 437.475
XW-2A 24 Nov 19:38:02 19:41:00 30° 263° (W) 19:44:00 145.665 - 145.685
NO-84 24 Nov 19:41:20 19:45:28 60° 26° (NNE) 19:49:42 435.350 FM
DELFI C3 24 Nov 19:45:10 19:48:04 20° 64° (ENE) 19:50:59 145.870
AAUSAT CUBESAT 2 24 Nov 19:48:12 19:52:01 35° 264° (W) 19:55:51 437.432
SEEDS 24 Nov 19:54:25 19:56:58 16° 270° (W) 19:59:31 437.485
EO-88 24 Nov 19:55:53 19:57:20 12° 61° (ENE) 19:58:46 145.990 - 145.960
ZACube-1 24 Nov 19:58:23 20:02:28 42° 262° (W) 20:06:29 437.345
STARS 24 Nov 19:58:37 20:00:22 12° 304° (NW) 20:02:06 437.465
SO-50 24 Nov 20:02:03 20:04:36 15° 110° (ESE) 20:07:09 436.795
HO-68 24 Nov 20:02:19 20:07:17 20° 272° (W) 20:12:18 435.675
Max Valier Satellite 24 Nov 20:04:46 20:07:29 20° 65° (ENE) 20:10:13 145.860
FO-29 24 Nov 20:04:54 20:12:15 41° 94° (E) 20:19:08 435.910
ISS 24 Nov 20:08:10 20:11:14 38° 146° (SE) 20:14:19 437.550
RS-15 24 Nov 20:11:46 20:23:58 60° 320° (NW) 20:35:58 29.354- 29.394
UWE-3 24 Nov 20:18:06 20:20:56 17° 269° (W) 20:23:45 435.000/436.395/437.385
nSIGHT-1 24 Nov 20:48:05 20:51:19 86° 151° (SSE) 20:54:32 .
AO-73 24 Nov 20:48:51 20:51:30 16° 269° (W) 20:54:08 145.935
Oscar 11 24 Nov 21:00:38 21:03:35 18° 269° (W) 21:06:33 .
